RH
50 92 100 100 100 96 75 72 100 100 100 98 76 78 94 100 100 100 100 100 100 100 100 100 100 100 100 100 100 100 100 100 100 95 76 74 75 73 77 72 65 60 54 57 54 50 52 69 80 66 62 51 50 56
45 60 73 100 96 75 46 61 72 100 100 100 100 100 100 88 75 98 94 100 100 100 100 100 100 100 100 100 100 100 96 96 88 93 93 92 85 82 78 76 76 72 63 59 57 56 47 44 47 45 42 65 73 63
56 48 68 72 63 64 54 50 45 51 86 100 90 91 100 100 100 99 100 98 84 94 94 87 98 96 100 100 100 100 100 100 100 96 85 76 74 72 69 65 62 63 57 53 49 43 36 38 30 34 40 45 44 50
74 55 67 87 91 84 68 65 48 44 46 52 82 79 77 89 75 79 58 74 94 100 96 100 100 81 84 90 85 84 97 100 100 90 88 83 77 67 65 60 60 58 56 49 42 37 36 31 30 26 29 33 37 38
65 75 68 76 100 93 85 84 76 66 50 45 58 67 61 76 66 54 56 50 69 62 76 96 100 100 94 76 76 76 64 82 85 93 84 70 69 67 63 58 61 65 50 38 34 32 29 27 29 25 20 24 30 33
97 82 87 83 92 82 62 74 66 77 70 63 51 60 49 71 73 69 63 61 51 56 41 52 76 97 92 87 76 64 67 55 66 66 69 61 58 45 37 40 49 45 36 32 29 24 22 26 26 25 25 25 27 27
86 97 100 88 76 74 60 60 62 58 67 60 62 68 55 67 61 66 58 56 87 83 65 54 54 70 68 65 58 46 50 43 42 38 41 46 46 42 37 34 37 38 32 26 27 22 18 19 20 22 23 23 24 25
100 100 100 90 100 95 69 63 78 73 85 80 85 79 77 92 77 76 84 77 69 72 58 53 76 76 66 58 34 30 32 40 32 34 34 34 32 33 30 36 28 28 26 23 23 18 16 14 14 14 15 16 18 21
96 89 100 99 100 100 100 92 98 82 99 98 85 93 95 93 100 93 100 71 72 94 98 87 65 94 78 46 33 24 25 30 36 32 30 32 34 26 28 29 28 26 20 20 17 15 13 13 13 12 12 13 14 14
100 100 100 100 100 100 100 100 100 100 100 100 100 100 100 100 97 100 94 100 100 78 77 81 89 82 65 70 46 25 27 28 25 24 30 32 29 24 22 26 23 24 18 16 15 14 14 14 14 13 12 12 13 13
100 100 100 100 100 100 100 100 100 100 100 100 100 100 100 100 100 100 98 98 96 93 86 79 82 72 73 70 28 23 26 24 26 27 24 24 26 24 23 20 18 16 14 13 12 12 12 13 12 12 12 12 12 12
100 100 100 100 100 100 97 100 100 100 100 99 100 100 100 100 100 100 99 100 97 85 84 75 70 38 44 38 21 20 20 18 19 17 17 18 18 17 17 16 14 13 13 13 13 12 12 11 11 11 11 11 11 11
100 100 100 100 100 100 100 100 89 100 100 100 100 100 100 100 80 74 95 99 80 78 32 25 25 22 24 23 20 19 17 16 15 15 16 16 16 15 13 13 12 12 12 11 10 10 9 9 9 9 9 9 9 9
75 77 100 99 96 66 43 39 82 100 100 99 91 68 43 32 33 37 40 49 52 34 21 19 19 18 19 19 19 18 16 16 15 14 14 13 12 10 8 8 8 8 9 9 9 8 8 8 8 8 8 8 8 9
17 21 27 21 25 26 30 31 40 64 62 48 29 21 25 23 26 20 15 14 14 13 13 12 13 15 16 16 15 15 13 12 12 11 9 7 7 7 9 9 8 9 8 8 7 7 7 7 7 7 8 7 7 7
12 14 16 19 19 15 15 15 14 13 14 15 16 14 13 13 13 11 11 11 11 11 10 10 10 10 10 10 10 10 10 10 10 8 7 6 7 8 8 8 8 8 6 6 6 6 6 6 6 6 7 7 6 6
8 9 10 10 10 10 10 10 10 11 11 12 11 10 10 10 11 11 12 11 10 10 9 9 9 9 9 9 10 11 10 8 6 6 7 7 8 8 7 6 6 7 6 7 8 7 7 6 6 6 6 6 6 6
5 7 7 8 8 8 9 9 8 9 12 12 11 10 10 10 10 10 9 9 9 9 8 8 8 10 9 9 10 9 7 6 6 8 9 9 7 6 6 6 7 6 5 6 6 6 6 5 5 6 5 6 6 6
5 5 5 6 6 6 6 7 9 10 10 11 10 9 9 10 10 8 8 8 7 7 7 9 9 8 9 8 7 7 6 8 9 10 9 8 7 7 6 6 5 5 5 5 5 4 5 5 5 5 6 6 6 6
6 6 6 5 5 6 7 8 9 10 10 9 8 8 10 10 9 9 7 7 6 7 9 9 8 7 6 6 6 8 9 9 8 8 8 7 6 6 6 6 6 5 5 4 4 4 4 4 4 3 4 4 4 5
6 7 7 8 8 8 9 10 11 12 11 10 9 10 10 10 9 8 7 6 9 11 8 6 5 7 7 9 11 10 10 7 6 6 7 9 8 6 7 6 5 5 4 4 4 4 3 3 3 3 4 4 3 4
7 8 8 8 8 10 13 14 14 13 14 12 10 9 10 9 8 8 8 10 9 8 5 6 8 9 10 9 7 5 4 6 7 8 7 7 6 6 5 5 4 4 4 4 4 4 4 3 4 4 4 4 3 3
9 10 10 9 9 11 13 14 13 12 11 10 9 8 8 9 9 8 9 9 8 7 7 8 7 8 8 9 8 8 7 5 5 4 5 5 5 5 5 5 4 4 4 3 3 4 4 4 3 4 4 4 4 4
9 9 11 12 13 14 14 13 12 12 11 11 11 11 10 10 10 10 10 8 8 8 8 8 7 8 7 6 5 4 4 4 6 6 4 3 4 5 5 5 4 4 4 6 6 4 4 4 4 5 4 4 4 4
10 11 12 12 12 12 12 12 12 13 13 13 13 13 13 11 11 12 11 11 10 10 7 7 7 7 7 6 6 5 4 5 7 7 4 5 8 8 6 5 5 5 6 6 5 5 4 4 4 4 4 4 4 4
12 13 13 11 12 13 14 14 14 15 17 17 14 14 14 15 13 12 11 12 11 8 10 9 9 9 7 6 8 7 5 6 7 6 6 6 6 6 5 4 3 3 5 4 3 3 3 3 3 3 3 3 3 3
12 12 12 12 12 13 13 14 17 16 14 17 17 13 14 16 12 12 13 11 13 14 11 10 9 9 9 8 7 6 6 5 5 4 4 4 4 4 4 3 3 3 3 3 3 3 3 3 3 3 3 3 3 3
12 10 10 13 13 13 15 18 18 17 16 14 13 14 14 13 11 12 12 11 10 9 8 8 8 7 7 6 5 5 4 4 4 4 4 4 4 3 4 4 4 4 4 4 4 4 4 3 3 3 3 3 3 3
14 13 14 16 20 22 19 14 12 14 14 12 11 10 9 10 12 9 8 8 8 7 6 6 6 6 6 5 5 4 4 4 4 4 4 4 4 4 4 5 5 5 5 4 4 4 4 4 4 4 4 4 4 4
18 20 19 17 16 18 18 13 11 11 11 10 8 7 7 8 7 6 6 7 7 6 6 6 6 6 6 6 5 4 4 5 5 5 5 6 5 5 6 6 6 5 5 5 5 5 5 5 4 4 4 4 5 5
16 16 17 16 14 12 10 8 7 8 7 6 6 6 7 7 7 6 7 8 7 7 6 6 6 7 7 7 8 8 8 8 7 7 6 6 6 6 6 6 5 5 5 5 5 6 6 6 7 7 6 6 6 6
11 10 10 11 11 10 9 10 8 7 7 7 8 7 7 7 8 8 8 7 7 7 7 8 8 9 10 11 11 11 10 10 9 9 8 7 7 6 6 5 5 6 6 6 7 7 7 7 7 7 6 6 6 6
12 10 10 10 9 8 9 10 10 10 10 9 9 9 9 9 9 10 10 10 10 10 11 12 12 12 12 12 11 10 9 9 8 8 7 7 7 7 6 6 7 7 6 7 7 8 8 7 7 7 6 7 7 7
Wind_Speed
84 81 81 79 78 80 80 74 76 75 71 72 71 68 66 67 68 68 67 66 67 66 68 67 65 65 65 65 61 57 55 59 65 71 69 67 65 65 61 64 68 72 74 74 77 78 73 73 70 73 73 72 70 66
87 77 76 85 90 82 77 80 75 76 74 73 73 69 71 75 77 78 78 78 78 78 78 77 77 77 72 76 78 79 79 76 76 73 74 73 70 68 68 65 68 75 80 82 82 83 87 87 86 81 80 80 79 77
93 86 89 81 84 86 82 78 81 81 77 78 66 75 74 74 79 78 82 85 83 81 83 84 86 85 83 84 86 89 90 91 86 85 86 83 81 80 82 81 79 82 87 89 93 98 96 92 91 87 86 88 87 88
105 99 96 93 93 92 95 87 83 85 88 83 82 75 78 77 82 79 70 75 82 84 89 90 93 87 89 87 88 88 92 95 100 100 98 97 93 92 86 86 83 88 92 95 101 96 94 95 96 92 89 88 90 92
119 109 99 100 101 101 101 100 97 96 88 84 85 87 84 80 84 81 87 80 77 75 73 81 88 97 99 98 97 96 98 96 100 100 104 107 105 111 109 105 99 99 103 101 101 104 102 96 100 96 91 87 87 90
115 113 108 101 100 98 97 102 101 99 95 92 91 86 88 84 85 89 86 88 87 88 84 76 79 88 95 105 105 103 104 102 101 101 103 106 105 109 109 108 105 106 111 115 103 97 94 89 92 88 85 86 87 88
124 113 109 116 111 100 99 100 102 101 98 95 99 92 92 94 89 95 89 97 102 105 105 95 91 100 103 109 106 107 111 112 107 105 107 111 113 117 114 108 104 103 104 105 97 89 85 85 84 83 82 82 84 86
118 110 116 113 109 111 104 98 93 95 102 104 104 102 104 105 111 110 110 103 108 107 111 106 110 105 105 105 108 110 108 117 115 116 111 109 111 108 106 104 117 109 101 91 89 86 85 83 83 83 81 80 82 84
136 129 117 122 111 109 122 113 108 109 109 114 114 114 113 114 118 120 116 115 118 121 122 115 113 120 109 103 109 111 108 105 113 115 114 111 106 112 108 108 107 113 106 96 93 93 88 86 84 82 81 82 84 85
141 132 131 122 121 128 123 115 116 125 118 123 129 128 134 130 127 130 131 127 132 126 124 125 131 124 116 115 109 112 111 105 114 111 107 100 96 108 109 101 98 97 96 95 94 94 93 91 90 90 87 86 86 85
140 141 138 133 127 134 132 132 133 133 137 136 136 130 133 136 133 140 141 138 136 134 132 128 131 128 123 118 111 107 105 104 97 96 101 97 94 99 101 101 102 101 101 100 98 96 95 93 92 91 91 89 88 88
149 156 146 146 146 150 151 143 140 135 135 135 136 140 144 147 148 141 140 142 141 136 137 131 125 120 117 113 109 110 108 103 98 97 97 98 102 105 106 107 106 106 104 104 102 101 98 95 93 92 91 91 90 89
161 158 155 150 149 149 153 155 147 142 143 141 147 146 147 147 144 140 139 140 135 134 121 119 122 118 114 111 112 109 108 105 103 102 103 106 110 109 105 105 107 107 106 105 102 99 96 91 90 89 89 89 87 87
153 156 153 157 157 151 147 141 141 143 147 147 143 139 131 130 129 129 130 131 129 125 127 122 118 115 112 110 110 108 108 107 106 106 109 112 109 105 100 98 98 97 97 97 96 94 91 88 86 88 88 88 86 85
136 140 143 140 138 137 138 135 133 138 139 137 134 131 130 131 129 128 125 122 121 115 113 112 111 111 111 110 107 107 107 104 105 109 106 100 94 89 86 86 85 85 87 87 87 86 86 87 85 85 88 87 86 85
112 112 111 118 120 120 118 116 115 116 117 119 118 118 117 116 117 112 107 104 101 102 104 105 105 103 102 102 99 98 97 95 94 93 89 88 86 83 81 79 79 80 81 78 77 78 79 80 82 82 81 83 82 81
99 100 104 103 104 101 99 99 98 97 96 96 100 105 106 106 105 104 99 97 95 94 95 94 90 89 89 86 84 88 87 86 85 83 83 82 80 79 77 76 74 73 71 70 72 74 76 77 77 77 75 77 78 77
86 87 88 91 91 90 90 90 88 86 85 89 91 94 93 93 93 93 92 90 90 90 89 83 80 83 82 78 77 79 78 77 78 79 80 81 78 73 68 65 65 66 65 66 68 69 71 73 74 74 73 73 73 75
72 75 77 80 82 80 78 77 78 81 84 87 87 85 82 81 83 83 82 82 81 80 75 75 74 73 72 70 68 66 69 74 74 76 76 73 69 67 66 66 65 64 63 64 65 65 65 66 67 68 67 69 70 72
64 65 68 67 65 67 68 67 68 72 77 78 78 77 76 76 76 75 75 74 70 67 67 69 68 64 63 60 60 63 69 71 71 67 64 65 66 65 65 65 64 63 64 64 63 62 61 60 61 60 60 61 63 64
55 56 56 56 58 57 56 59 61 64 64 65 66 66 67 70 70 70 68 66 60 64 66 63 56 52 53 54 60 61 64 65 60 57 56 56 65 64 60 60 58 59 59 60 58 57 55 54 54 53 53 56 55 56
45 47 50 49 48 46 47 52 54 55 55 59 62 62 62 61 61 61 60 59 61 64 57 51 46 45 49 55 57 58 58 56 53 49 47 48 52 54 52 52 52 53 53 55 53 52 54 53 50 49 50 53 50 49
41 41 43 43 41 40 42 46 48 51 52 55 58 54 51 53 57 57 54 54 55 55 49 46 45 46 47 50 54 55 53 41 41 42 43 44 42 42 45 48 45 45 48 50 46 47 47 49 46 43 43 43 41 40
36 35 34 34 34 37 42 43 44 47 47 48 48 49 51 52 49 48 50 52 48 46 47 45 43 43 42 42 43 44 40 31 36 40 40 36 35 39 37 39 42 41 35 37 43 41 40 38 37 36 36 36 35 34
29 29 30 33 36 38 38 38 39 41 43 43 43 44 46 46 44 47 47 45 44 46 44 41 40 37 38 40 41 41 36 31 33 37 32 28 34 36 36 35 35 31 29 38 37 36 34 31 31 32 32 31 32 34
27 30 32 34 32 31 33 33 33 33 35 38 40 40 40 40 42 43 41 41 44 41 40 40 40 40 40 36 39 41 37 32 32 33 30 31 34 36 33 28 26 21 25 29 30 29 27 26 27 26 25 26 29 30
26 26 25 25 24 24 24 24 26 31 32 33 36 35 33 38 40 38 39 38 40 40 40 39 39 38 38 36 33 34 34 31 28 28 27 26 28 29 26 22 21 20 20 22 23 22 22 22 22 21 20 20 24 26
22 22 19 18 20 19 19 23 28 28 29 31 30 31 35 36 34 33 32 33 34 34 33 31 32 31 30 30 28 27 26 24 21 22 22 22 22 21 19 19 21 20 19 18 17 16 17 16 16 16 15 15 16 17
17 17 15 14 15 19 23 25 23 24 28 28 27 26 25 21 26 30 26 25 24 24 25 25 24 23 22 24 25 22 19 17 17 18 20 20 19 20 21 18 18 17 16 15 14 14 14 13 14 13 11 10 9 9
12 13 15 17 17 18 22 23 19 20 18 21 22 16 14 18 23 19 16 19 20 21 20 17 17 17 18 18 19 19 17 17 17 16 16 18 19 19 18 17 17 15 13 12 10 10 11 11 10 8 7 5 5 5
11 11 13 16 18 18 18 16 10 13 17 16 14 13 13 15 19 13 13 16 16 16 14 13 13 13 15 16 17 19 21 19 16 15 14 13 12 12 12 12 11 10 8 7 6 5 5 4 4 3 2 1 1 1
11 11 11 11 12 13 12 11 12 11 10 11 12 11 12 11 12 13 11 11 12 12 10 10 10 11 10 10 11 11 11 12 13 13 12 11 11 10 9 8 6 4 3 3 4 5 5 4 2 1 4 6 6 6
9 8 8 8 7 6 6 7 8 7 8 8 8 7 8 8 8 7 7 7 8 8 8 8 7 7 8 8 7 7 7 8 8 7 7 7 7 7 7 6 5 4 4 5 6 7 6 6 6 6 6 7 8 8
Wind_Direction
274 269 262 263 261 264 269 265 264 259 258 263 266 262 263 265 267 267 267 268 270 272 272 273 276 279 279 282 283 279 277 281 285 287 289 289 288 289 288 289 288 288 286 284 284 284 279 274 272 275 277 276 274 271
273 270 272 265 266 266 270 259 261 261 260 262 263 263 265 266 267 267 269 270 271 272 272 274 276 277 277 280 280 280 282 280 280 280 282 284 283 282 282 280 282 282 283 285 285 285 286 283 281 281 281 277 276 274
279 281 273 275 273 266 269 268 267 262 265 261 275 269 264 266 270 268 269 267 268 270 274 276 277 278 280 280 280 282 280 279 280 280 283 282 283 283 281 279 279 283 283 284 284 286 288 286 290 283 280 277 276 275
276 278 278 272 274 273 269 269 271 269 269 272 270 270 271 265 272 265 274 275 271 274 269 274 275 274 277 279 279 280 279 280 280 281 281 283 282 282 282 281 284 287 286 286 287 289 288 289 285 285 281 277 273 273
273 274 275 271 268 274 269 268 270 271 271 272 272 276 274 270 273 281 269 276 268 272 281 273 277 276 277 278 278 277 279 276 279 278 279 282 282 281 281 281 283 287 287 288 287 285 286 286 283 284 282 278 275 272
274 273 277 279 271 274 270 266 268 269 270 273 274 280 273 279 275 280 280 281 279 276 281 289 284 276 276 282 280 283 274 274 273 277 275 278 277 280 283 284 283 285 285 284 285 288 286 282 281 278 279 278 275 274
274 272 270 275 273 276 270 269 267 268 269 276 278 280 281 282 283 284 285 274 287 288 289 292 290 295 282 291 278 286 279 274 274 276 278 275 276 278 283 285 287 283 283 285 283 283 281 280 280 278 276 277 275 275
272 269 266 275 267 275 278 273 271 272 275 280 281 281 282 285 283 288 286 284 283 286 287 290 294 294 287 288 287 287 287 278 276 276 278 279 279 282 289 284 278 286 285 285 282 281 280 280 280 279 279 278 278 276
274 274 269 277 272 273 277 278 278 280 278 279 283 279 281 284 283 284 283 282 285 286 285 288 289 291 291 288 284 288 289 281 275 277 281 281 283 282 284 286 284 282 284 283 283 282 282 282 282 279 279 278 276 275
273 272 273 275 274 274 275 278 277 278 274 275 278 278 277 280 281 280 283 283 285 286 287 287 290 293 291 293 289 285 286 284 278 278 283 283 284 281 282 281 281 278 279 280 281 281 283 283 282 282 280 278 277 277
265 266 268 267 262 266 269 264 270 268 273 274 274 275 277 279 282 282 283 284 284 285 285 287 289 289 288 288 286 285 286 282 286 285 282 283 283 282 281 281 281 281 281 280 280 280 280 280 280 280 278 278 277 275
262 264 266 265 265 268 271 272 268 269 269 272 274 276 277 278 280 280 280 280 281 282 284 284 285 284 284 284 284 283 284 283 284 281 282 283 281 280 280 280 281 281 282 282 282 281 280 279 278 277 277 276 274 273
261 262 263 266 265 268 269 270 268 269 270 272 272 273 274 275 278 277 276 278 278 281 281 283 283 282 282 281 282 283 283 283 282 282 282 281 279 279 280 282 283 283 283 282 280 278 277 277 277 276 275 274 274 274
260 260 260 263 262 265 266 265 265 266 268 271 271 272 272 273 277 276 276 276 277 277 278 279 279 280 279 280 280 281 281 282 283 283 281 279 280 282 284 282 279 278 278 278 277 278 279 278 278 277 276 275 274 274
258 258 257 259 261 262 262 264 265 267 267 270 271 271 272 272 272 273 275 276 275 276 277 278 278 278 278 280 281 282 283 283 283 281 282 283 284 282 280 277 276 276 275 274 276 277 278 279 278 276 276 276 276 275
254 255 256 259 260 261 261 262 263 264 266 267 269 269 267 268 269 273 276 276 276 277 277 276 276 277 278 280 282 283 283 282 281 282 282 280 280 280 280 278 276 276 277 279 280 279 277 276 275 276 277 277 277 278
254 254 255 256 257 258 260 261 263 263 265 267 266 265 266 268 270 272 274 273 274 276 276 277 278 280 280 281 282 282 281 280 279 279 278 278 278 278 278 279 282 284 283 282 279 276 276 275 274 275 275 275 275 276
252 254 255 256 257 258 259 260 261 263 264 264 265 266 268 268 268 269 271 273 273 273 275 279 280 280 282 281 279 278 280 280 279 279 279 280 282 284 286 285 280 277 275 273 273 272 272 273 275 274 275 274 274 273
252 252 254 255 255 257 259 261 262 262 261 262 263 265 267 269 269 269 270 271 273 275 278 279 278 276 277 276 277 278 278 277 278 280 282 285 289 286 284 283 281 279 277 275 273 273 272 272 271 270 271 272 273 273
249 250 252 254 257 257 257 257 258 258 258 259 261 263 265 267 269 270 272 273 276 279 278 274 274 275 277 281 283 282 278 276 277 283 287 286 283 282 280 279 281 281 281 280 280 279 278 278 277 276 274 272 272 271
248 249 252 252 251 252 253 254 255 257 259 260 261 262 264 265 267 270 274 276 279 275 272 273 278 285 286 282 276 277 279 280 284 282 280 283 281 281 284 284 285 284 283 283 283 283 282 279 280 281 279 275 272 272
245 245 246 248 250 250 250 251 253 255 257 259 259 260 263 268 271 273 273 274 273 273 278 285 289 283 277 274 273 273 274 276 280 285 280 277 278 280 281 279 278 278 279 279 281 280 281 283 282 280 278 277 277 277
240 242 244 246 247 247 248 249 251 254 255 259 264 268 269 268 267 268 273 275 276 280 286 285 278 275 274 275 275 279 283 291 285 280 279 277 276 275 276 277 276 274 273 278 281 278 278 280 282 284 285 286 286 285
239 241 243 244 244 242 244 248 250 254 259 261 265 268 268 272 277 279 278 280 284 287 284 283 281 283 284 280 279 282 286 290 288 285 280 284 284 278 275 277 277 278 287 288 281 281 281 285 286 284 282 281 282 279
236 236 236 236 235 238 242 247 252 253 255 261 265 267 269 274 278 279 280 284 287 284 284 290 293 292 294 296 296 295 299 301 295 289 286 289 288 286 281 278 282 289 285 275 281 283 286 287 284 284 286 285 280 275
229 231 232 237 240 240 243 246 252 258 261 262 264 270 273 275 276 279 285 286 285 292 295 293 298 298 294 296 298 295 293 295 292 293 293 287 286 285 290 295 292 284 270 276 280 283 285 284 282 282 283 282 279 277
230 237 241 245 248 251 253 254 252 253 256 260 261 265 272 273 275 278 280 286 288 285 287 290 291 290 291 291 288 289 292 294 298 292 289 288 287 291 296 295 287 285 279 279 283 288 288 285 284 282 282 283 279 279
229 239 243 243 246 251 254 254 253 256 260 265 268 264 263 267 275 278 277 273 276 280 283 283 281 283 282 284 287 287 290 294 294 291 290 288 288 290 292 292 292 291 290 289 289 287 285 284 282 282 283 284 284 279
238 243 252 257 253 248 249 255 262 261 259 263 270 272 278 279 269 266 271 273 273 274 273 273 275 280 284 286 288 292 295 296 293 290 291 293 296 298 300 298 296 296 297 297 301 299 299 295 286 285 283 279 282 282
258 252 249 252 255 258 260 262 265 275 280 269 271 275 263 257 264 271 272 266 267 267 271 275 279 282 285 290 295 301 304 306 308 303 296 293 296 298 300 301 304 307 308 310 308 298 295 293 296 294 284 266 256 251
250 245 245 247 250 256 264 272 269 255 256 269 272 270 265 256 265 273 261 261 266 271 277 282 288 288 289 294 298 302 307 314 319 320 321 320 313 306 303 305 309 314 316 312 313 318 319 325 336 310 262 226 190 156
243 246 245 247 254 263 274 272 264 275 278 271 269 265 257 262 265 267 262 263 269 276 286 297 302 308 310 310 311 312 312 314 316 320 321 323 326 329 331 336 339 335 335 8 25 27 27 38 54 88 119 119 114 115
243 246 260 260 253 253 245 250 261 266 263 266 269 266 266 263 262 267 277 287 292 298 304 309 318 317 314 316 319 327 331 332 337 337 338 344 352 355 358 4 14 22 51 69 68 64 67 77 95 116 113 104 103 106